{"data":{"norad_id":60935,"intl_designator":"2024-155M","name":"STARLINK-11253 [DTC]","alt_names":[],"object_type":"PAYLOAD","status":"ACTIVE","operator":null,"country":"US","launch_date":"2024-08-31","launch_site_code":"AFWTR","launch_vehicle":null,"mission":null,"orbit_class":"UNKNOWN","rcs_meters":null,"size_class":null,"mass_kg":null,"dimensions":null,"purposes":["comms"],"wikipedia_slug":null,"has_3d_model":false,"image_url":null,"decayed_at":null,"tle_current":{"epoch":"2026-09-21T19:48:43.287264Z","epoch_age_seconds":73972,"freshness":"FRESH","line1":"1 60935U 24155M   26264.82550101 -.00003246  00000+0 -21938-4 0  9995","line2":"2 60935  53.1580  94.6726 0000615  94.1970 265.9119 15.69724114119209","mean_motion":15.69724114,"eccentricity":6.15e-5,"inclination_deg":53.158,"raan_deg":94.6726,"arg_perigee_deg":94.197,"mean_anomaly_deg":265.9119,"bstar":-2.1938e-5,"rev_number":11920,"period_min":91.735865376405,"perigee_km":359.27198572021,"apogee_km":360.10073799371,"semimajor_km":6737.823361857,"source":"CELESTRAK","updated_at":"2026-09-22T09:00:49.291663Z"}}}